Year,Month,Day,Hour,Minute,Value (Times are PST for temperature in C)
2006,02,13,00,00,6.60
2006,02,13,00,01,6.60
2006,02,13,00,02,6.60
2006,02,13,00,03,6.60
2006,02,13,00,04,6.60
2006,02,13,00,05,6.60
2006,02,13,00,06,6.60
2006,02,13,00,07,6.60
2006,02,13,00,08,6.60
2006,02,13,00,09,6.60
2006,02,13,00,10,6.60
2006,02,13,00,11,6.60
2006,02,13,00,12,6.60
2006,02,13,00,13,6.60
2006,02,13,00,14,6.60
2006,02,13,00,15,6.60
2006,02,13,00,16,6.60
2006,02,13,00,17,6.60
2006,02,13,00,18,6.60
2006,02,13,00,19,6.60
2006,02,13,00,20,6.60
2006,02,13,00,21,6.60
2006,02,13,00,22,6.60
2006,02,13,00,23,6.60
2006,02,13,00,24,6.60
2006,02,13,00,25,6.60
2006,02,13,00,26,6.60
2006,02,13,00,27,6.60
2006,02,13,00,28,6.60
2006,02,13,00,29,6.60
2006,02,13,00,30,6.60
2006,02,13,00,31,6.60
2006,02,13,00,32,6.60
2006,02,13,00,33,6.60
2006,02,13,00,34,6.60
2006,02,13,00,35,6.60
2006,02,13,00,36,6.60
2006,02,13,00,37,6.60
2006,02,13,00,38,6.60
2006,02,13,00,39,6.60
2006,02,13,00,40,6.60
2006,02,13,00,41,6.60
2006,02,13,00,42,6.60
2006,02,13,00,43,6.60
2006,02,13,00,44,6.60
2006,02,13,00,45,6.60
2006,02,13,00,46,6.60
2006,02,13,00,47,6.60
2006,02,13,00,48,6.60
2006,02,13,00,49,6.60
2006,02,13,00,50,6.60
2006,02,13,00,51,6.60
2006,02,13,00,52,6.60
2006,02,13,00,53,6.70
2006,02,13,00,54,6.70
2006,02,13,00,55,6.70
2006,02,13,00,56,6.70
2006,02,13,00,57,6.70
2006,02,13,00,58,6.70
2006,02,13,00,59,6.70
2006,02,13,01,00,6.70
2006,02,13,01,01,6.70
2006,02,13,01,02,6.60
2006,02,13,01,03,6.60
2006,02,13,01,04,6.60
2006,02,13,01,05,6.60
2006,02,13,01,06,6.60
2006,02,13,01,07,6.60
2006,02,13,01,08,6.60
2006,02,13,01,09,6.60
2006,02,13,01,10,6.60
2006,02,13,01,11,6.60
2006,02,13,01,12,6.60
2006,02,13,01,13,6.60
2006,02,13,01,14,6.60
2006,02,13,01,15,6.60
2006,02,13,01,16,6.60
2006,02,13,01,17,6.60
2006,02,13,01,18,6.60
2006,02,13,01,19,6.60
2006,02,13,01,20,6.60
2006,02,13,01,21,6.60
2006,02,13,01,22,6.60
2006,02,13,01,23,6.50
2006,02,13,01,24,6.40
2006,02,13,01,25,6.40
2006,02,13,01,26,6.40
2006,02,13,01,27,6.40
2006,02,13,01,28,6.40
2006,02,13,01,29,6.40
2006,02,13,01,30,6.40
2006,02,13,01,31,6.40
2006,02,13,01,32,6.40
2006,02,13,01,33,6.40
2006,02,13,01,34,6.40
2006,02,13,01,35,6.40
2006,02,13,01,36,6.40
2006,02,13,01,37,6.40
2006,02,13,01,38,6.40
2006,02,13,01,39,6.40
2006,02,13,01,40,6.40
2006,02,13,01,41,6.40
2006,02,13,01,42,6.40
2006,02,13,01,43,6.40
2006,02,13,01,44,6.40
2006,02,13,01,45,6.40
2006,02,13,01,46,6.40
2006,02,13,01,47,6.40
2006,02,13,01,48,6.40
2006,02,13,01,49,6.40
2006,02,13,01,50,6.40
2006,02,13,01,51,6.40
2006,02,13,01,52,6.40
2006,02,13,01,53,6.40
2006,02,13,01,54,6.40
2006,02,13,01,55,6.40
2006,02,13,01,56,6.40
2006,02,13,01,57,6.40
2006,02,13,01,58,6.40
2006,02,13,01,59,6.40
2006,02,13,02,00,6.40
2006,02,13,02,01,6.40
2006,02,13,02,02,6.30
2006,02,13,02,03,6.30
2006,02,13,02,04,6.30
2006,02,13,02,05,6.30
2006,02,13,02,06,6.30
2006,02,13,02,07,6.30
2006,02,13,02,08,6.30
2006,02,13,02,09,6.30
2006,02,13,02,10,6.30
2006,02,13,02,11,6.30
2006,02,13,02,12,6.30
2006,02,13,02,13,6.30
2006,02,13,02,14,6.30
2006,02,13,02,15,6.30
2006,02,13,02,16,6.30
2006,02,13,02,17,6.30
2006,02,13,02,18,6.30
2006,02,13,02,19,6.30
2006,02,13,02,20,6.30
2006,02,13,02,21,6.30
2006,02,13,02,22,6.30
2006,02,13,02,23,6.30
2006,02,13,02,24,6.30
2006,02,13,02,25,6.30
2006,02,13,02,26,6.30
2006,02,13,02,27,6.30
2006,02,13,02,28,6.30
2006,02,13,02,29,6.30
2006,02,13,02,30,6.30
2006,02,13,02,31,6.30
2006,02,13,02,32,6.30
2006,02,13,02,33,6.30
2006,02,13,02,34,6.30
2006,02,13,02,35,6.30
2006,02,13,02,36,6.30
2006,02,13,02,37,6.30
2006,02,13,02,38,6.30
2006,02,13,02,39,6.30
2006,02,13,02,40,6.30
2006,02,13,02,41,6.30
2006,02,13,02,42,6.30
2006,02,13,02,43,6.30
2006,02,13,02,44,6.30
2006,02,13,02,45,6.30
2006,02,13,02,46,6.30
2006,02,13,02,47,6.30
2006,02,13,02,48,6.30
2006,02,13,02,49,6.30
2006,02,13,02,50,6.30
2006,02,13,02,51,6.30
2006,02,13,02,52,6.30
2006,02,13,02,53,6.30
2006,02,13,02,54,6.30
2006,02,13,02,55,6.30
2006,02,13,02,56,6.30
2006,02,13,02,57,6.30
2006,02,13,02,58,6.30
2006,02,13,02,59,6.30
2006,02,13,03,00,6.30
2006,02,13,03,01,6.30
2006,02,13,03,02,6.30
2006,02,13,03,03,6.30
2006,02,13,03,04,6.30
2006,02,13,03,05,6.30
2006,02,13,03,06,6.30
2006,02,13,03,07,6.30
2006,02,13,03,08,6.30
2006,02,13,03,09,6.30
2006,02,13,03,10,6.30
2006,02,13,03,11,6.30
2006,02,13,03,12,6.30
2006,02,13,03,13,6.30
2006,02,13,03,14,6.30
2006,02,13,03,15,6.30
2006,02,13,03,16,6.20
2006,02,13,03,17,6.20
2006,02,13,03,18,6.20
2006,02,13,03,19,6.20
2006,02,13,03,20,6.20
2006,02,13,03,21,6.20
2006,02,13,03,22,6.20
2006,02,13,03,23,6.20
2006,02,13,03,24,6.20
2006,02,13,03,25,6.20
2006,02,13,03,26,6.20
2006,02,13,03,27,6.20
2006,02,13,03,28,6.20
2006,02,13,03,29,6.20
2006,02,13,03,30,6.20
2006,02,13,03,31,6.20
2006,02,13,03,32,6.20
2006,02,13,03,33,6.20
2006,02,13,03,34,6.20
2006,02,13,03,35,6.20
2006,02,13,03,36,6.20
2006,02,13,03,37,6.20
2006,02,13,03,38,6.20
2006,02,13,03,39,6.20
2006,02,13,03,40,6.20
2006,02,13,03,41,6.20
2006,02,13,03,42,6.20
2006,02,13,03,43,6.20
2006,02,13,03,44,6.20
2006,02,13,03,45,6.20
2006,02,13,03,46,6.20
2006,02,13,03,47,6.20
2006,02,13,03,48,6.20
2006,02,13,03,49,6.20
2006,02,13,03,50,6.20
2006,02,13,03,51,6.20
2006,02,13,03,52,6.20
2006,02,13,03,53,6.20
2006,02,13,03,54,6.20
2006,02,13,03,55,6.20
2006,02,13,03,56,6.20
2006,02,13,03,57,6.20
2006,02,13,03,58,6.20
2006,02,13,03,59,6.20
2006,02,13,04,00,6.20
2006,02,13,04,01,6.20
2006,02,13,04,02,6.20
2006,02,13,04,03,6.20
2006,02,13,04,04,6.20
2006,02,13,04,05,6.20
2006,02,13,04,06,6.20
2006,02,13,04,07,6.20
2006,02,13,04,08,6.20
2006,02,13,04,09,6.20
2006,02,13,04,10,6.20
2006,02,13,04,11,6.20
2006,02,13,04,12,6.20
2006,02,13,04,13,6.20
2006,02,13,04,14,6.20
2006,02,13,04,15,6.20
2006,02,13,04,16,6.20
2006,02,13,04,17,6.20
2006,02,13,04,18,6.20
2006,02,13,04,19,6.20
2006,02,13,04,20,6.20
2006,02,13,04,21,6.20
2006,02,13,04,22,6.20
2006,02,13,04,23,6.20
2006,02,13,04,24,6.20
2006,02,13,04,25,6.20
2006,02,13,04,26,6.20
2006,02,13,04,27,6.20
2006,02,13,04,28,6.20
2006,02,13,04,29,6.20
2006,02,13,04,30,6.20
2006,02,13,04,31,6.20
2006,02,13,04,32,6.20
2006,02,13,04,33,6.20
2006,02,13,04,34,6.20
2006,02,13,04,35,6.20
2006,02,13,04,36,6.20
2006,02,13,04,37,6.20
2006,02,13,04,38,6.20
2006,02,13,04,39,6.20
2006,02,13,04,40,6.20
2006,02,13,04,41,6.20
2006,02,13,04,42,6.20
2006,02,13,04,43,6.20
2006,02,13,04,44,6.20
2006,02,13,04,45,6.20
2006,02,13,04,46,6.20
2006,02,13,04,47,6.20
2006,02,13,04,48,6.20
2006,02,13,04,49,6.20
2006,02,13,04,50,6.20
2006,02,13,04,51,6.20
2006,02,13,04,52,6.20
2006,02,13,04,53,6.20
2006,02,13,04,54,6.20
2006,02,13,04,55,6.20
2006,02,13,04,56,6.20
2006,02,13,04,57,6.20
2006,02,13,04,58,6.20
2006,02,13,04,59,6.20
2006,02,13,05,00,6.20
2006,02,13,05,01,6.20
2006,02,13,05,02,6.20
2006,02,13,05,03,6.20
2006,02,13,05,04,6.20
2006,02,13,05,05,6.20
2006,02,13,05,06,6.20
2006,02,13,05,07,6.20
2006,02,13,05,08,6.20
2006,02,13,05,09,6.20
2006,02,13,05,10,6.20
2006,02,13,05,11,6.20
2006,02,13,05,12,6.20
2006,02,13,05,13,6.20
2006,02,13,05,14,6.20
2006,02,13,05,15,6.20
2006,02,13,05,16,6.20
2006,02,13,05,17,6.20
2006,02,13,05,18,6.20
2006,02,13,05,19,6.20
2006,02,13,05,20,6.20
2006,02,13,05,21,6.20
2006,02,13,05,22,6.20
2006,02,13,05,23,6.20
2006,02,13,05,24,6.20
2006,02,13,05,25,6.20
2006,02,13,05,26,6.20
2006,02,13,05,27,6.20
2006,02,13,05,28,6.20
2006,02,13,05,29,6.20
2006,02,13,05,30,6.20
2006,02,13,05,31,6.20
2006,02,13,05,32,6.20
2006,02,13,05,33,6.20
2006,02,13,05,34,6.20
2006,02,13,05,35,6.20
2006,02,13,05,36,6.20
2006,02,13,05,37,6.20
2006,02,13,05,38,6.20
2006,02,13,05,39,6.20
2006,02,13,05,40,6.20
2006,02,13,05,41,6.20
2006,02,13,05,42,6.20
2006,02,13,05,43,6.20
2006,02,13,05,44,6.20
2006,02,13,05,45,6.20
2006,02,13,05,46,6.10
2006,02,13,05,47,6.10
2006,02,13,05,48,6.10
2006,02,13,05,49,6.10
2006,02,13,05,50,6.10
2006,02,13,05,51,6.10
2006,02,13,05,52,6.10
2006,02,13,05,53,6.10
2006,02,13,05,54,6.00
2006,02,13,05,55,6.00
2006,02,13,05,56,6.00
2006,02,13,05,57,5.90
2006,02,13,05,58,5.90
2006,02,13,05,59,5.90
2006,02,13,06,00,5.90
2006,02,13,06,01,5.80
2006,02,13,06,02,5.80
2006,02,13,06,03,5.80
2006,02,13,06,04,5.80
2006,02,13,06,05,5.80
2006,02,13,06,06,5.80
2006,02,13,06,07,5.80
2006,02,13,06,08,5.80
2006,02,13,06,09,5.80
2006,02,13,06,10,5.80
2006,02,13,06,11,5.80
2006,02,13,06,12,5.80
2006,02,13,06,13,5.80
2006,02,13,06,14,5.70
2006,02,13,06,15,5.70
2006,02,13,06,16,5.70
2006,02,13,06,17,5.70
2006,02,13,06,18,5.70
2006,02,13,06,19,5.70
2006,02,13,06,20,5.70
2006,02,13,06,21,5.70
2006,02,13,06,22,5.70
2006,02,13,06,23,5.70
2006,02,13,06,24,5.70
2006,02,13,06,25,5.60
2006,02,13,06,26,5.60
2006,02,13,06,27,5.60
2006,02,13,06,28,5.50
2006,02,13,06,29,5.50
2006,02,13,06,30,5.50
2006,02,13,06,31,5.50
2006,02,13,06,32,5.50
2006,02,13,06,33,5.40
2006,02,13,06,34,5.40
2006,02,13,06,35,5.30
2006,02,13,06,36,5.30
2006,02,13,06,37,5.30
2006,02,13,06,38,5.30
2006,02,13,06,39,5.20
2006,02,13,06,40,5.20
2006,02,13,06,41,5.20
2006,02,13,06,42,5.10
2006,02,13,06,43,5.10
2006,02,13,06,44,5.10
2006,02,13,06,45,5.10
2006,02,13,06,46,5.10
2006,02,13,06,47,5.10
2006,02,13,06,48,5.00
2006,02,13,06,49,4.90
2006,02,13,06,50,4.90
2006,02,13,06,51,4.90
2006,02,13,06,52,4.90
2006,02,13,06,53,4.90
2006,02,13,06,54,4.90
2006,02,13,06,55,4.90
2006,02,13,06,56,4.90
2006,02,13,06,57,4.90
2006,02,13,06,58,4.90
2006,02,13,06,59,4.90
2006,02,13,07,00,4.90
2006,02,13,07,01,4.90
2006,02,13,07,02,4.80
2006,02,13,07,03,4.80
2006,02,13,07,04,4.80
2006,02,13,07,05,4.80
2006,02,13,07,06,4.70
2006,02,13,07,07,4.70
2006,02,13,07,08,4.70
2006,02,13,07,09,4.70
2006,02,13,07,10,4.60
2006,02,13,07,11,4.60
2006,02,13,07,12,4.60
2006,02,13,07,13,4.60
2006,02,13,07,14,4.60
2006,02,13,07,15,4.50
2006,02,13,07,16,4.50
2006,02,13,07,17,4.50
2006,02,13,07,18,4.50
2006,02,13,07,19,4.50
2006,02,13,07,20,4.40
2006,02,13,07,21,4.40
2006,02,13,07,22,4.40
2006,02,13,07,23,4.30
2006,02,13,07,24,4.30
2006,02,13,07,25,4.30
2006,02,13,07,26,4.30
2006,02,13,07,27,4.20
2006,02,13,07,28,4.20
2006,02,13,07,29,4.20
2006,02,13,07,30,4.20
2006,02,13,07,31,4.20
2006,02,13,07,32,4.20
2006,02,13,07,33,4.20
2006,02,13,07,34,4.20
2006,02,13,07,35,4.30
2006,02,13,07,36,4.30
2006,02,13,07,37,4.30
2006,02,13,07,38,4.30
2006,02,13,07,39,4.30
2006,02,13,07,40,4.40
2006,02,13,07,41,4.40
2006,02,13,07,42,4.40
2006,02,13,07,43,4.40
2006,02,13,07,44,4.50
2006,02,13,07,45,4.50
2006,02,13,07,46,4.50
2006,02,13,07,47,4.50
2006,02,13,07,48,4.50
2006,02,13,07,49,4.50
2006,02,13,07,50,4.50
2006,02,13,07,51,4.60
2006,02,13,07,52,4.60
2006,02,13,07,53,4.60
2006,02,13,07,54,4.50
2006,02,13,07,55,4.50
2006,02,13,07,56,4.50
2006,02,13,07,57,4.50
2006,02,13,07,58,4.50
2006,02,13,07,59,4.50
2006,02,13,08,00,4.60
2006,02,13,08,01,4.60
2006,02,13,08,02,4.60
2006,02,13,08,03,4.60
2006,02,13,08,04,4.60
2006,02,13,08,05,4.60
2006,02,13,08,06,4.60
2006,02,13,08,07,4.60
2006,02,13,08,08,4.60
2006,02,13,08,09,4.70
2006,02,13,08,10,4.80
2006,02,13,08,11,4.80
2006,02,13,08,12,4.90
2006,02,13,08,13,4.90
2006,02,13,08,14,4.90
2006,02,13,08,15,5.10
2006,02,13,08,16,5.10
2006,02,13,08,17,5.10
2006,02,13,08,18,5.10
2006,02,13,08,19,5.10
2006,02,13,08,20,5.10
2006,02,13,08,21,5.20
2006,02,13,08,22,5.20
2006,02,13,08,23,5.20
2006,02,13,08,24,5.30
2006,02,13,08,25,5.30
2006,02,13,08,26,5.30
2006,02,13,08,27,5.30
2006,02,13,08,28,5.30
2006,02,13,08,29,5.30
2006,02,13,08,30,5.30
2006,02,13,08,31,5.30
2006,02,13,08,32,5.30
2006,02,13,08,33,5.40
2006,02,13,08,34,5.40
2006,02,13,08,35,5.40
2006,02,13,08,36,5.40
2006,02,13,08,37,5.50
2006,02,13,08,38,5.50
2006,02,13,08,39,5.60
2006,02,13,08,40,5.60
2006,02,13,08,41,5.60
2006,02,13,08,42,5.70
2006,02,13,08,43,5.70
2006,02,13,08,44,5.70
2006,02,13,08,45,5.70
2006,02,13,08,46,5.70
2006,02,13,08,47,5.80
2006,02,13,08,48,5.80
2006,02,13,08,49,5.90
2006,02,13,08,50,5.90
2006,02,13,08,51,6.00
2006,02,13,08,52,6.00
2006,02,13,08,53,6.00
2006,02,13,08,54,6.10
2006,02,13,08,55,6.20
2006,02,13,08,56,6.20
2006,02,13,08,57,6.20
2006,02,13,08,58,6.30
2006,02,13,08,59,6.30
2006,02,13,09,00,6.30
2006,02,13,09,01,6.40
2006,02,13,09,02,6.40
2006,02,13,09,03,6.40
2006,02,13,09,04,6.50
2006,02,13,09,05,6.60
2006,02,13,09,06,6.60
2006,02,13,09,07,6.60
2006,02,13,09,08,6.60
2006,02,13,09,09,6.60
2006,02,13,09,10,6.70
2006,02,13,09,11,6.70
2006,02,13,09,12,6.70
2006,02,13,09,13,6.70
2006,02,13,09,14,6.70
2006,02,13,09,15,6.80
2006,02,13,09,16,6.80
2006,02,13,09,17,6.80
2006,02,13,09,18,6.80
2006,02,13,09,19,6.80
2006,02,13,09,20,6.80
2006,02,13,09,21,6.80
2006,02,13,09,22,6.90
2006,02,13,09,23,6.90
2006,02,13,09,24,7.00
2006,02,13,09,25,7.00
2006,02,13,09,26,7.00
2006,02,13,09,27,7.00
2006,02,13,09,28,7.10
2006,02,13,09,29,7.10
2006,02,13,09,30,7.10
2006,02,13,09,31,7.10
2006,02,13,09,32,7.10
2006,02,13,09,33,7.20
2006,02,13,09,34,7.20
2006,02,13,09,35,7.20
2006,02,13,09,36,7.20
2006,02,13,09,37,7.30
2006,02,13,09,38,7.30
2006,02,13,09,39,7.30
2006,02,13,09,40,7.30
2006,02,13,09,41,7.30
2006,02,13,09,42,7.30
2006,02,13,09,43,7.30
2006,02,13,09,44,7.30
2006,02,13,09,45,7.30
2006,02,13,09,46,7.30
2006,02,13,09,47,7.30
2006,02,13,09,48,7.30
2006,02,13,09,49,7.30
2006,02,13,09,50,7.30
2006,02,13,09,51,7.30
2006,02,13,09,52,7.30
2006,02,13,09,53,7.30
2006,02,13,09,54,7.30
2006,02,13,09,55,7.30
2006,02,13,09,56,7.30
2006,02,13,09,57,7.30
2006,02,13,09,58,7.30
2006,02,13,09,59,7.30
2006,02,13,10,00,7.30
2006,02,13,10,01,7.30
2006,02,13,10,02,7.40
2006,02,13,10,03,7.40
2006,02,13,10,04,7.40
2006,02,13,10,05,7.40
2006,02,13,10,06,7.40
2006,02,13,10,07,7.40
2006,02,13,10,08,7.40
2006,02,13,10,09,7.40
2006,02,13,10,10,7.40
2006,02,13,10,11,7.50
2006,02,13,10,12,7.50
2006,02,13,10,13,7.50
2006,02,13,10,14,7.50
2006,02,13,10,15,7.60
2006,02,13,10,16,7.60
2006,02,13,10,17,7.60
2006,02,13,10,18,7.60
2006,02,13,10,19,7.70
2006,02,13,10,20,7.70
2006,02,13,10,21,7.70
2006,02,13,10,22,7.80
2006,02,13,10,23,7.80
2006,02,13,10,24,7.80
2006,02,13,10,25,7.80
2006,02,13,10,26,7.80
2006,02,13,10,27,7.80
2006,02,13,10,28,7.90
2006,02,13,10,29,7.90
2006,02,13,10,30,8.00
2006,02,13,10,31,8.00
2006,02,13,10,32,8.00
2006,02,13,10,33,8.00
2006,02,13,10,34,8.10
2006,02,13,10,35,8.10
2006,02,13,10,36,8.10
2006,02,13,10,37,8.10
2006,02,13,10,38,8.20
2006,02,13,10,39,8.20
2006,02,13,10,40,8.20
2006,02,13,10,41,8.20
2006,02,13,10,42,8.20
2006,02,13,10,43,8.20
2006,02,13,10,44,8.20
2006,02,13,10,45,8.30
2006,02,13,10,46,8.30
2006,02,13,10,47,8.30
2006,02,13,10,48,8.40
2006,02,13,10,49,8.50
2006,02,13,10,50,8.50
2006,02,13,10,51,8.60
2006,02,13,10,52,8.60
2006,02,13,10,53,8.60
2006,02,13,10,54,8.60
2006,02,13,10,55,8.60
2006,02,13,10,56,8.60
2006,02,13,10,57,8.60
2006,02,13,10,58,8.60
2006,02,13,10,59,8.50
2006,02,13,11,00,8.50
2006,02,13,11,01,8.50
2006,02,13,11,02,8.50
2006,02,13,11,03,8.50
2006,02,13,11,04,8.40
2006,02,13,11,05,8.40
2006,02,13,11,06,8.40
2006,02,13,11,07,8.40
2006,02,13,11,08,8.30
2006,02,13,11,09,8.30
2006,02,13,11,10,8.30
2006,02,13,11,11,8.30
2006,02,13,11,12,8.30
2006,02,13,11,13,8.30
2006,02,13,11,14,8.30
2006,02,13,11,15,8.20
2006,02,13,11,16,8.20
2006,02,13,11,17,8.20
2006,02,13,11,18,8.20
2006,02,13,11,19,8.20
2006,02,13,11,20,8.20
2006,02,13,11,21,8.20
2006,02,13,11,22,8.20
2006,02,13,11,23,8.20
2006,02,13,11,24,8.20
2006,02,13,11,25,8.20
2006,02,13,11,26,8.20
2006,02,13,11,27,8.20
2006,02,13,11,28,8.20
2006,02,13,11,29,8.20
2006,02,13,11,30,8.20
2006,02,13,11,31,8.20
2006,02,13,11,32,8.20
2006,02,13,11,33,8.20
2006,02,13,11,34,8.20
2006,02,13,11,35,8.20
2006,02,13,11,36,8.20
2006,02,13,11,37,8.30
2006,02,13,11,38,8.30
2006,02,13,11,39,8.30
2006,02,13,11,40,8.30
2006,02,13,11,41,8.30
2006,02,13,11,42,8.30
2006,02,13,11,43,8.40
2006,02,13,11,44,8.40
2006,02,13,11,45,8.30
2006,02,13,11,46,8.40
2006,02,13,11,47,8.40
2006,02,13,11,48,8.40
2006,02,13,11,49,8.40
2006,02,13,11,50,8.40
2006,02,13,11,51,8.40
2006,02,13,11,52,8.40
2006,02,13,11,53,8.40
2006,02,13,11,54,8.40
2006,02,13,11,55,8.40
2006,02,13,11,56,8.30
2006,02,13,11,57,8.30
2006,02,13,11,58,8.30
2006,02,13,11,59,8.30
2006,02,13,12,00,8.30
2006,02,13,12,01,8.30
2006,02,13,12,02,8.40
2006,02,13,12,03,8.40
2006,02,13,12,04,8.50
2006,02,13,12,05,8.50
2006,02,13,12,06,8.60
2006,02,13,12,07,8.70
2006,02,13,12,08,8.80
2006,02,13,12,09,8.90
2006,02,13,12,10,9.00
2006,02,13,12,11,9.10
2006,02,13,12,12,9.10
2006,02,13,12,13,9.20
2006,02,13,12,14,9.20
2006,02,13,12,15,9.20
2006,02,13,12,16,9.20
2006,02,13,12,17,9.20
2006,02,13,12,18,9.30
2006,02,13,12,19,9.30
2006,02,13,12,20,9.30
2006,02,13,12,21,9.30
2006,02,13,12,22,9.30
2006,02,13,12,23,9.30
2006,02,13,12,24,9.40
2006,02,13,12,25,9.40
2006,02,13,12,26,9.50
2006,02,13,12,27,9.50
2006,02,13,12,28,9.50
2006,02,13,12,29,9.60
2006,02,13,12,30,9.70
2006,02,13,12,31,9.70
2006,02,13,12,32,9.80
2006,02,13,12,33,9.80
2006,02,13,12,34,9.90
2006,02,13,12,35,9.90
2006,02,13,12,36,9.90
2006,02,13,12,37,9.90
2006,02,13,12,38,9.90
2006,02,13,12,39,9.80
2006,02,13,12,40,9.80
2006,02,13,12,41,9.80
2006,02,13,12,42,9.80
2006,02,13,12,43,9.80
2006,02,13,12,44,9.80
2006,02,13,12,45,9.90
2006,02,13,12,46,9.90
2006,02,13,12,47,9.90
2006,02,13,12,48,9.90
2006,02,13,12,49,9.90
2006,02,13,12,50,9.90
2006,02,13,12,51,9.90
2006,02,13,12,52,9.90
2006,02,13,12,53,10.00
2006,02,13,12,54,10.10
2006,02,13,12,55,10.10
2006,02,13,12,56,10.20
2006,02,13,12,57,10.30
2006,02,13,12,58,10.30
2006,02,13,12,59,10.30
2006,02,13,13,00,10.20
2006,02,13,13,01,10.20
2006,02,13,13,02,10.30
2006,02,13,13,03,10.30
2006,02,13,13,04,10.30
2006,02,13,13,05,10.30
2006,02,13,13,06,10.30
2006,02,13,13,07,10.30
2006,02,13,13,08,10.30
2006,02,13,13,09,10.30
2006,02,13,13,10,10.30
2006,02,13,13,11,10.40
2006,02,13,13,12,10.40
2006,02,13,13,13,10.50
2006,02,13,13,14,10.60
2006,02,13,13,15,10.60
2006,02,13,13,16,10.60
2006,02,13,13,17,10.60
2006,02,13,13,18,10.60
2006,02,13,13,19,10.60
2006,02,13,13,20,10.70
2006,02,13,13,21,10.70
2006,02,13,13,22,10.70
2006,02,13,13,23,10.60
2006,02,13,13,24,10.60
2006,02,13,13,25,10.60
2006,02,13,13,26,10.60
2006,02,13,13,27,10.60
2006,02,13,13,28,10.60
2006,02,13,13,29,10.60
2006,02,13,13,30,10.60
2006,02,13,13,31,10.60
2006,02,13,13,32,10.60
2006,02,13,13,33,10.60
2006,02,13,13,34,10.60
2006,02,13,13,35,10.60
2006,02,13,13,36,10.60
2006,02,13,13,37,10.60
2006,02,13,13,38,10.60
2006,02,13,13,39,10.60
2006,02,13,13,40,10.60
2006,02,13,13,41,10.60
2006,02,13,13,42,10.60
2006,02,13,13,43,10.60
2006,02,13,13,44,10.60
2006,02,13,13,45,10.50
2006,02,13,13,46,10.40
2006,02,13,13,47,10.40
2006,02,13,13,48,10.40
2006,02,13,13,49,10.40
2006,02,13,13,50,10.40
2006,02,13,13,51,10.40
2006,02,13,13,52,10.40
2006,02,13,13,53,10.40
2006,02,13,13,54,10.40
2006,02,13,13,55,10.40
2006,02,13,13,56,10.40
2006,02,13,13,57,10.40
2006,02,13,13,58,10.40
2006,02,13,13,59,10.40
2006,02,13,14,00,10.40
2006,02,13,14,01,10.40
2006,02,13,14,02,10.40
2006,02,13,14,03,10.50
2006,02,13,14,04,10.60
2006,02,13,14,05,10.60
2006,02,13,14,06,10.60
2006,02,13,14,07,10.60
2006,02,13,14,08,10.60
2006,02,13,14,09,10.60
2006,02,13,14,10,10.60
2006,02,13,14,11,10.60
2006,02,13,14,12,10.60
2006,02,13,14,13,10.60
2006,02,13,14,14,10.60
2006,02,13,14,15,10.60
2006,02,13,14,16,10.60
2006,02,13,14,17,10.70
2006,02,13,14,18,10.70
2006,02,13,14,19,10.70
2006,02,13,14,20,10.70
2006,02,13,14,21,10.70
2006,02,13,14,22,10.70
2006,02,13,14,23,10.70
2006,02,13,14,24,10.70
2006,02,13,14,25,10.70
2006,02,13,14,26,10.70
2006,02,13,14,27,10.70
2006,02,13,14,28,10.70
2006,02,13,14,29,10.70
2006,02,13,14,30,10.80
2006,02,13,14,31,10.70
2006,02,13,14,32,10.70
2006,02,13,14,33,10.70
2006,02,13,14,34,10.70
2006,02,13,14,35,10.70
2006,02,13,14,36,10.60
2006,02,13,14,37,10.60
2006,02,13,14,38,10.60
2006,02,13,14,39,10.60
2006,02,13,14,40,10.60
2006,02,13,14,41,10.60
2006,02,13,14,42,10.60
2006,02,13,14,43,10.60
2006,02,13,14,44,10.60
2006,02,13,14,45,10.60
2006,02,13,14,46,10.60
2006,02,13,14,47,10.60
2006,02,13,14,48,10.60
2006,02,13,14,49,10.70
2006,02,13,14,50,10.70
2006,02,13,14,51,10.70
2006,02,13,14,52,10.70
2006,02,13,14,53,10.80
2006,02,13,14,54,10.80
2006,02,13,14,55,10.90
2006,02,13,14,56,10.90
2006,02,13,14,57,10.90
2006,02,13,14,58,10.90
2006,02,13,14,59,10.90
2006,02,13,15,00,11.00
2006,02,13,15,01,11.10
2006,02,13,15,02,11.10
2006,02,13,15,03,11.10
2006,02,13,15,04,11.20
2006,02,13,15,05,11.20
2006,02,13,15,06,11.30
2006,02,13,15,07,11.30
2006,02,13,15,08,11.30
2006,02,13,15,09,11.20
2006,02,13,15,10,11.20
2006,02,13,15,11,11.10
2006,02,13,15,12,11.10
2006,02,13,15,13,11.20
2006,02,13,15,14,11.30
2006,02,13,15,15,11.40
2006,02,13,15,16,11.40
2006,02,13,15,17,11.40
2006,02,13,15,18,11.50
2006,02,13,15,19,11.60
2006,02,13,15,20,11.60
2006,02,13,15,21,11.60
2006,02,13,15,22,11.70
2006,02,13,15,23,11.60
2006,02,13,15,24,11.60
2006,02,13,15,25,11.50
2006,02,13,15,26,11.40
2006,02,13,15,27,11.30
2006,02,13,15,28,11.10
2006,02,13,15,29,11.00
2006,02,13,15,30,10.90
2006,02,13,15,31,10.80
2006,02,13,15,32,10.80
2006,02,13,15,33,10.70
2006,02,13,15,34,10.70
2006,02,13,15,35,10.60
2006,02,13,15,36,10.70
2006,02,13,15,37,10.70
2006,02,13,15,38,10.80
2006,02,13,15,39,10.70
2006,02,13,15,40,10.80
2006,02,13,15,41,10.80
2006,02,13,15,42,10.80
2006,02,13,15,43,10.80
2006,02,13,15,44,10.70
2006,02,13,15,45,10.70
2006,02,13,15,46,10.60
2006,02,13,15,47,10.60
2006,02,13,15,48,10.60
2006,02,13,15,49,10.60
2006,02,13,15,50,10.60
2006,02,13,15,51,10.60
2006,02,13,15,52,10.60
2006,02,13,15,53,10.60
2006,02,13,15,54,10.60
2006,02,13,15,55,10.60
2006,02,13,15,56,10.60
2006,02,13,15,57,10.60
2006,02,13,15,58,10.60
2006,02,13,15,59,10.60
2006,02,13,16,00,10.60
2006,02,13,16,01,10.60
2006,02,13,16,02,10.60
2006,02,13,16,03,10.60
2006,02,13,16,04,10.60
2006,02,13,16,05,10.60
2006,02,13,16,06,10.50
2006,02,13,16,07,10.40
2006,02,13,16,08,10.40
2006,02,13,16,09,10.40
2006,02,13,16,10,10.40
2006,02,13,16,11,10.30
2006,02,13,16,12,10.30
2006,02,13,16,13,10.30
2006,02,13,16,14,10.30
2006,02,13,16,15,10.30
2006,02,13,16,16,10.20
2006,02,13,16,17,10.20
2006,02,13,16,18,10.20
2006,02,13,16,19,10.20
2006,02,13,16,20,10.20
2006,02,13,16,21,10.20
2006,02,13,16,22,10.20
2006,02,13,16,23,10.20
2006,02,13,16,24,10.20
2006,02,13,16,25,10.10
2006,02,13,16,26,10.10
2006,02,13,16,27,10.10
2006,02,13,16,28,10.10
2006,02,13,16,29,10.10
2006,02,13,16,30,9.90
2006,02,13,16,31,9.90
2006,02,13,16,32,9.90
2006,02,13,16,33,9.80
2006,02,13,16,34,9.70
2006,02,13,16,35,9.70
2006,02,13,16,36,9.60
2006,02,13,16,37,9.60
2006,02,13,16,38,9.50
2006,02,13,16,39,9.50
2006,02,13,16,40,9.50
2006,02,13,16,41,9.40
2006,02,13,16,42,9.40
2006,02,13,16,43,9.40
2006,02,13,16,44,9.30
2006,02,13,16,45,9.30
2006,02,13,16,46,9.30
2006,02,13,16,47,9.30
2006,02,13,16,48,9.30
2006,02,13,16,49,9.30
2006,02,13,16,50,9.30
2006,02,13,16,51,9.30
2006,02,13,16,52,9.30
2006,02,13,16,53,9.30
2006,02,13,16,54,9.30
2006,02,13,16,55,9.30
2006,02,13,16,56,9.20
2006,02,13,16,57,9.20
2006,02,13,16,58,9.20
2006,02,13,16,59,9.10
2006,02,13,17,00,9.10
2006,02,13,17,01,9.00
2006,02,13,17,02,8.90
2006,02,13,17,03,8.90
2006,02,13,17,04,8.80
2006,02,13,17,05,8.70
2006,02,13,17,06,8.70
2006,02,13,17,07,8.70
2006,02,13,17,08,8.60
2006,02,13,17,09,8.50
2006,02,13,17,10,8.50
2006,02,13,17,11,8.40
2006,02,13,17,12,8.30
2006,02,13,17,13,8.20
2006,02,13,17,14,8.20
2006,02,13,17,15,8.20
2006,02,13,17,16,8.10
2006,02,13,17,17,8.10
2006,02,13,17,18,8.00
2006,02,13,17,19,8.00
2006,02,13,17,20,8.00
2006,02,13,17,21,7.90
2006,02,13,17,22,7.90
2006,02,13,17,23,7.90
2006,02,13,17,24,7.80
2006,02,13,17,25,7.80
2006,02,13,17,26,7.80
2006,02,13,17,27,7.80
2006,02,13,17,28,7.70
2006,02,13,17,29,7.70
2006,02,13,17,30,7.60
2006,02,13,17,31,7.60
2006,02,13,17,32,7.60
2006,02,13,17,33,7.50
2006,02,13,17,34,7.50
2006,02,13,17,35,7.40
2006,02,13,17,36,7.40
2006,02,13,17,37,7.30
2006,02,13,17,38,7.30
2006,02,13,17,39,7.30
2006,02,13,17,40,7.30
2006,02,13,17,41,7.30
2006,02,13,17,42,7.20
2006,02,13,17,43,7.20
2006,02,13,17,44,7.20
2006,02,13,17,45,7.10
2006,02,13,17,46,7.10
2006,02,13,17,47,7.10
2006,02,13,17,48,7.00
2006,02,13,17,49,7.00
2006,02,13,17,50,7.00
2006,02,13,17,51,6.90
2006,02,13,17,52,6.90
2006,02,13,17,53,6.90
2006,02,13,17,54,6.80
2006,02,13,17,55,6.80
2006,02,13,17,56,6.80